Zurück zum Katalog

STARLINK-11136

AktivKommunikationVLEO
NORAD 60407·PAYLOAD·🇺🇸 United States

Gestartet Aug 10, 2024 von Cape Canaveral Space Force Station

Loading…

Nächste Überflüge (nächste 24 Stunden)

TLE

AktuellSource: CelesTrak SupGP

Epoche: Sep 15, 2026, 02:09 UTC

1 60407C 24141K   26258.09006944 -.00039540  00000+0 -32547-3 0  2588
2 60407  53.1575 232.7096 0001255  90.8481  89.6526 15.69746346    15

Verfolge STARLINK-11136 in Echtzeit mit AllMySat

Download on the App Store